User: anonymous   Login
Location: Alfortville
(48.8058°N, 2.4204°E)
Time: 09:05:14
(UTC+00:00)
Language:

NOSS 3-2 (A) - Orbit

View from above orbital plane
View from above orbital plane
View from above satellite
View from above satellite

Ground track
Ground track

The orbit data is extracted from the following two-line orbital elements,

1 28095U 03054A   22022.71857324 0.00000030  00000-0  29232-4 0    09
2 28095  63.4231 335.8074 0454185   0.1077 359.8923 13.41418920    09
Epoch (UTC): 22 January 2022 17:14:44
Eccentricity: 0.0454185
inclination: 63.4231°
perigee height: 764 km
apogee height: 1444 km
right ascension of ascending node: 335.8074°
argument of perigee: 0.1077°
revolutions per day: 13.41418920
mean anomaly at epoch: 359.8923°
orbit number at epoch: 0

The dashed part of the orbit path shows where the satellite is in the earth's shadow,  

DLR